This is the latest recevied weather packets stored in our database for station/object N1YZ. If no packets are shown the sender has not sent any weather packets the latest 10 day(s).
| Time | Temp. | Humidity | Pressure | Rain* | Wind** | Luminosity | Snow |
|---|---|---|---|---|---|---|---|
| 1777510774 | 22.78° C | 98% | 1030.5 hPa | 0 mm | - | 0 W/m² | - |
| 1777510472 | 22.78° C | 97% | 1030.6 hPa | 0 mm | - | 0 W/m² | - |
| 1777510167 | 22.78° C | 97% | 1030.6 hPa | 0 mm | - | 0 W/m² | - |
| 1777509864 | 22.78° C | 97% | 1030.2 hPa | 0 mm | - | 0 W/m² | - |
| 1777509559 | 22.78° C | 96% | 1030.5 hPa | 0 mm | - | 0 W/m² | - |
| 1777509256 | 22.78° C | 95% | 1030.5 hPa | 0 mm | - | 0 W/m² | - |
| 1777508953 | 23.33° C | 95% | 1030.1 hPa | 0 mm | - | 1 W/m² | - |
| 1777508650 | 23.33° C | 95% | 1030.4 hPa | 0 mm | - | 1 W/m² | - |
| 1777508348 | 23.33° C | 95% | 1030.2 hPa | 0 mm | - | 2 W/m² | - |
| 1777508045 | 23.33° C | 95% | 1030.4 hPa | 0 mm | - | 3 W/m² | - |
| 1777507741 | 23.33° C | 94% | 1029.9 hPa | 0 mm | - | 4 W/m² | - |
| 1777507438 | 23.33° C | 94% | 1030.1 hPa | 0 mm | - | 6 W/m² | - |
| 1777507135 | 23.33° C | 93% | 1029.8 hPa | 0 mm | - | 7 W/m² | - |
| 1777506833 | 23.33° C | 93% | 1029.8 hPa | 0 mm | - | 8 W/m² | - |
| 1777506530 | 23.33° C | 93% | 1030.1 hPa | 0 mm | - | 10 W/m² | - |
| 1777506225 | 23.33° C | 93% | 1030 hPa | 0 mm | - | 14 W/m² | - |
| 1777505922 | 23.89° C | 92% | 1030.1 hPa | 0 mm | - | 22 W/m² | - |
| 1777505617 | 23.33° C | 92% | 1029.9 hPa | 0 mm | - | 19 W/m² | - |
| 1777505314 | 23.33° C | 92% | 1030 hPa | 0 mm | - | 19 W/m² | - |
| 1777505011 | 23.89° C | 93% | 1029.9 hPa | 0 mm | - | 17 W/m² | - |
| 1777504702 | 23.89° C | 93% | 1029.6 hPa | 0 mm | - | 23 W/m² | - |
| 1777504400 | 23.89° C | 92% | 1029.5 hPa | 0 mm | - | 30 W/m² | - |
| 1777504095 | 23.89° C | 92% | 1029.3 hPa | 0 mm | - | 35 W/m² | - |
| 1777503790 | 23.89° C | 91% | 1029.6 hPa | 0 mm | - | 41 W/m² | - |
| 1777503487 | 24.44° C | 89% | 1029.9 hPa | 0 mm | - | 41 W/m² | - |
* Rain latest hour (hover to see other rain measurements)
** Current wind speed in m/s (hover to see current wind gust speed)